| time (UTC) | temp C | wind direction | speed KPH | gust KPH | rain 1hr cm | rain 24hr cm | rain mn cm | humidity % | barometer mb |
| 20260902063303 | 25 | 104 | 3.2 | 8.0 | 0.00 | 0.00 | 0.00 | 67 | 1016.2 |
| 20260902062803 | 25 | 101 | 1.6 | 8.0 | 0.00 | 0.00 | 0.00 | 67 | 1016.3 |
| 20260902061802 | 25 | 143 | 3.2 | 4.8 | 0.00 | 0.00 | 0.00 | 67 | 1016.3 |
| 20260902060303 | 26 | 145 | 3.2 | 8.0 | 0.00 | 0.00 | 0.00 | 67 | 1016.2 |
| 20260902055803 | 26 | 124 | 1.6 | 8.0 | 0.00 | 0.00 | 0.00 | 66 | 1016.2 |
| 20260902055306 | 26 | 145 | 1.6 | 4.8 | 0.00 | 0.00 | 0.00 | 66 | 1016.2 |
| 20260902054802 | 26 | 143 | 1.6 | 4.8 | 0.00 | 0.00 | 0.00 | 66 | 1016.0 |
| 20260902054302 | 26 | 122 | 3.2 | 4.8 | 0.00 | 0.00 | 0.00 | 65 | 1016.0 |
| 20260902053803 | 26 | 122 | 1.6 | 4.8 | 0.00 | 0.00 | 0.00 | 65 | 1016.0 |
| 20260902053303 | 26 | 145 | 1.6 | 4.8 | 0.00 | 0.00 | 0.00 | 64 | 1016.0 |
| 20260902052803 | 26 | 102 | 1.6 | 4.8 | 0.00 | 0.00 | 0.00 | 63 | 1016.2 |
| 20260902052306 | 26 | 82 | 1.6 | 8.0 | 0.00 | 0.00 | 0.00 | 62 | 1016.2 |
| 20260902051803 | 26 | 146 | 3.2 | 8.0 | 0.00 | 0.00 | 0.00 | 62 | 1016.2 |
| 20260902051303 | 26 | 100 | 3.2 | 3.2 | 0.00 | 0.00 | 0.00 | 62 | 1016.2 |
| 20260902050819 | 26 | 102 | 3.2 | 4.8 | 0.00 | 0.00 | 0.00 | 62 | 1016.0 |
| 20260902050302 | 26 | 120 | 3.2 | 4.8 | 0.00 | 0.00 | 0.00 | 61 | 1016.0 |
| 20260902045803 | 26 | 167 | 3.2 | 8.0 | 0.00 | 0.00 | 0.00 | 61 | 1016.0 |
| 20260902045306 | 26 | 141 | 3.2 | 8.0 | 0.00 | 0.00 | 0.00 | 61 | 1016.0 |
| 20260902044803 | 26 | 122 | 1.6 | 8.0 | 0.00 | 0.00 | 0.00 | 61 | 1015.7 |
| 20260902044303 | 26 | 20 | 1.6 | 4.8 | 0.00 | 0.00 | 0.00 | 60 | 1015.7 |
| 20260902043803 | 26 | 122 | 1.6 | 4.8 | 0.00 | 0.00 | 0.00 | 60 | 1015.7 |
| 20260902043302 | 26 | 141 | 0.0 | 3.2 | 0.00 | 0.00 | 0.00 | 59 | 1015.7 |
| 20260902042802 | 26 | 188 | 0.0 | 0.0 | 0.00 | 0.00 | 0.00 | 59 | 1015.7 |
| 20260902042308 | 26 | 181 | 0.0 | 3.2 | 0.00 | 0.00 | 0.00 | 60 | 1015.7 |
| 20260902041803 | 26 | 123 | 1.6 | 3.2 | 0.00 | 0.00 | 0.00 | 58 | 1015.7 |
| 20260902041302 | 26 | 138 | 1.6 | 8.0 | 0.00 | 0.00 | 0.00 | 58 | 1015.7 |
| 20260902040803 | 26 | 121 | 1.6 | 8.0 | 0.00 | 0.00 | 0.00 | 58 | 1015.9 |
| 20260902040303 | 26 | 104 | 1.6 | 8.0 | 0.00 | 0.00 | 0.00 | 58 | 1015.9 |
| 20260902035803 | 27 | 144 | 1.6 | 8.0 | 0.00 | 0.00 | 0.00 | 58 | 1015.9 |
| 20260902035305 | 26 | 92 | 0.0 | 4.8 | 0.00 | 0.00 | 0.00 | 58 | 1015.9 |
| 20260902034803 | 26 | 80 | 0.0 | 0.0 | 0.00 | 0.00 | 0.00 | 57 | 1016.0 |
| 20260902034303 | 26 | 104 | 0.0 | 3.2 | 0.00 | 0.00 | 0.00 | 56 | 1016.0 |
| 20260902033803 | 27 | 123 | 0.0 | 3.2 | 0.00 | 0.00 | 0.00 | 56 | 1016.0 |
| 20260902033303 | 27 | 161 | 0.0 | 0.0 | 0.00 | 0.00 | 0.00 | 57 | 1016.0 |
| 20260902032803 | 27 | 255 | 0.0 | 0.0 | 0.00 | 0.00 | 0.00 | 56 | 1015.9 |
| 20260902032305 | 27 | 136 | 0.0 | 0.0 | 0.00 | 0.00 | 0.00 | 55 | 1015.9 |
| 20260902031803 | 27 | 257 | 0.0 | 3.2 | 0.00 | 0.00 | 0.00 | 55 | 1015.9 |
| 20260902031303 | 27 | 112 | 0.0 | 3.2 | 0.00 | 0.00 | 0.00 | 55 | 1015.9 |
| 20260902030802 | 27 | 99 | 0.0 | 3.2 | 0.00 | 0.00 | 0.00 | 55 | 1015.7 |
| 20260902030303 | 27 | 223 | 0.0 | 0.0 | 0.00 | 0.00 | 0.00 | 55 | 1015.7 |
| 20260902025803 | 27 | 96 | 0.0 | 3.2 | 0.00 | 0.00 | 0.00 | 54 | 1015.7 |
| 20260902025306 | 27 | 125 | 0.0 | 0.0 | 0.00 | 0.00 | 0.00 | 55 | 1015.7 |
| 20260902024803 | 27 | 99 | 0.0 | 4.8 | 0.00 | 0.00 | 0.00 | 54 | 1015.5 |
| 20260902024303 | 27 | 148 | 1.6 | 0.0 | 0.00 | 0.00 | 0.00 | 54 | 1015.5 |
| 20260902023803 | 27 | 261 | 1.6 | 3.2 | 0.00 | 0.00 | 0.00 | 54 | 1015.5 |
| 20260902023303 | 27 | 142 | 1.6 | 4.8 | 0.00 | 0.00 | 0.00 | 54 | 1015.5 |
| 20260902022803 | 27 | 11 | 0.0 | 3.2 | 0.00 | 0.00 | 0.00 | 54 | 1015.3 |
| 20260902022305 | 27 | 137 | 0.0 | 0.0 | 0.00 | 0.00 | 0.00 | 53 | 1015.3 |
| 20260902021803 | 27 | 12 | 0.0 | 0.0 | 0.00 | 0.00 | 0.00 | 54 | 1015.3 |
| 20260902021303 | 27 | 259 | 0.0 | 0.0 | 0.00 | 0.00 | 0.00 | 54 | 1015.3 |
| 20260902020303 | 28 | 312 | 0.0 | 4.8 | 0.00 | 0.00 | 0.00 | 53 | 1015.4 |
| 20260902015803 | 28 | 210 | 0.0 | 0.0 | 0.00 | 0.00 | 0.00 | 53 | 1015.4 |
| 20260902015306 | 28 | 104 | 0.0 | 0.0 | 0.00 | 0.00 | 0.00 | 53 | 1015.4 |
| 20260902014802 | 28 | 257 | 0.0 | 0.0 | 0.00 | 0.00 | 0.00 | 52 | 1015.2 |
| 20260902014303 | 28 | 109 | 0.0 | 0.0 | 0.00 | 0.00 | 0.00 | 52 | 1015.2 |
| 20260902013803 | 28 | 94 | 0.0 | 0.0 | 0.00 | 0.00 | 0.00 | 51 | 1015.2 |
| 20260902013303 | 28 | 112 | 0.0 | 0.0 | 0.00 | 0.00 | 0.00 | 50 | 1015.2 |
| 20260902012308 | 28 | 336 | 0.0 | 0.0 | 0.00 | 0.00 | 0.00 | 50 | 1015.2 |
| 20260902011803 | 29 | 135 | 0.0 | 3.2 | 0.00 | 0.00 | 0.00 | 50 | 1015.2 |
| 20260902011303 | 29 | 151 | 0.0 | 3.2 | 0.00 | 0.00 | 0.00 | 50 | 1015.2 |
| 20260902010803 | 29 | 142 | 0.0 | 3.2 | 0.00 | 0.00 | 0.00 | 49 | 1014.9 |
| 20260902010303 | 29 | 21 | 0.0 | 3.2 | 0.00 | 0.00 | 0.00 | 49 | 1014.9 |
| 20260902005803 | 30 | 235 | 0.0 | 8.0 | 0.00 | 0.00 | 0.00 | 48 | 1014.9 |
| 20260902005305 | 30 | 198 | 0.0 | 0.0 | 0.00 | 0.00 | 0.00 | 47 | 1014.9 |
| 20260902004803 | 30 | 282 | 0.0 | 4.8 | 0.00 | 0.00 | 0.00 | 47 | 1014.8 |
| 20260902004302 | 30 | 269 | 1.6 | 4.8 | 0.00 | 0.00 | 0.00 | 47 | 1014.8 |
| 20260902003803 | 30 | 55 | 1.6 | 4.8 | 0.00 | 0.00 | 0.00 | 46 | 1014.8 |
| 20260902003303 | 30 | 100 | 0.0 | 3.2 | 0.00 | 0.00 | 0.00 | 47 | 1014.8 |
| 20260902002306 | 31 | 145 | 0.0 | 3.2 | 0.00 | 0.00 | 0.00 | 45 | 1014.9 |
| 20260902001803 | 31 | 347 | 1.6 | 4.8 | 0.00 | 0.00 | 0.00 | 44 | 1014.9 |
| 20260902001302 | 31 | 233 | 1.6 | 4.8 | 0.00 | 0.00 | 0.00 | 44 | 1014.9 |
| 20260902000803 | 31 | 79 | 1.6 | 4.8 | 0.00 | 0.00 | 0.00 | 43 | 1015.1 |
| 20260902000304 | 31 | 104 | 1.6 | 4.8 | 0.00 | 0.00 | 0.00 | 43 | 1015.1 |
| 20260901235803 | 31 | 81 | 1.6 | 8.0 | 0.00 | 0.00 | 0.00 | 42 | 1015.1 |
| 20260901235307 | 32 | 122 | 1.6 | 11.3 | 0.00 | 0.00 | 0.00 | 42 | 1015.1 |
| 20260901234803 | 32 | 169 | 1.6 | 3.2 | 0.00 | 0.00 | 0.00 | 41 | 1015.1 |
| 20260901234303 | 32 | 149 | 1.6 | 9.7 | 0.00 | 0.00 | 0.00 | 41 | 1015.1 |
| 20260901233803 | 32 | 81 | 1.6 | 9.7 | 0.00 | 0.00 | 0.00 | 41 | 1015.1 |
| 20260901233302 | 32 | 294 | 1.6 | 4.8 | 0.00 | 0.00 | 0.00 | 41 | 1015.1 |
| 20260901232306 | 33 | 341 | 3.2 | 16.1 | 0.00 | 0.00 | 0.00 | 39 | 1015.2 |
| 20260901231803 | 33 | 120 | 1.6 | 16.1 | 0.00 | 0.00 | 0.00 | 36 | 1015.2 |
| 20260901231303 | 34 | 44 | 1.6 | 4.8 | 0.00 | 0.00 | 0.00 | 36 | 1015.2 |
| 20260901230803 | 35 | 8 | 1.6 | 4.8 | 0.00 | 0.00 | 0.00 | 35 | 1015.0 |
| 20260901230303 | 34 | 275 | 1.6 | 8.0 | 0.00 | 0.00 | 0.00 | 35 | 1015.0 |
| 20260901225803 | 35 | 145 | 1.6 | 8.0 | 0.00 | 0.00 | 0.00 | 33 | 1015.0 |
| 20260901225306 | 36 | 165 | 1.6 | 4.8 | 0.00 | 0.00 | 0.00 | 32 | 1015.0 |
| 20260901224802 | 36 | 100 | 1.6 | 3.2 | 0.00 | 0.00 | 0.00 | 32 | 1014.7 |
| 20260901224303 | 36 | 340 | 3.2 | 4.8 | 0.00 | 0.00 | 0.00 | 33 | 1014.7 |
| 20260901223303 | 35 | 253 | 4.8 | 9.7 | 0.00 | 0.00 | 0.00 | 32 | 1014.7 |
| 20260901222803 | 36 | 101 | 1.6 | 9.7 | 0.00 | 0.00 | 0.00 | 31 | 1014.9 |
| 20260901221803 | 37 | 124 | 3.2 | 4.8 | 0.00 | 0.00 | 0.00 | 30 | 1014.9 |
| 20260901221303 | 37 | 88 | 3.2 | 8.0 | 0.00 | 0.00 | 0.00 | 28 | 1014.9 |
| 20260901220803 | 39 | 80 | 4.8 | 9.7 | 0.00 | 0.00 | 0.00 | 30 | 1014.9 |
| 20260901220302 | 38 | 84 | 4.8 | 19.3 | 0.00 | 0.00 | 0.00 | 30 | 1014.9 |
| 20260901215306 | 38 | 21 | 1.6 | 8.0 | 0.00 | 0.00 | 0.00 | 31 | 1014.9 |
| 20260901214803 | 39 | 166 | 1.6 | 3.2 | 0.00 | 0.00 | 0.00 | 30 | 1014.9 |
| 20260901213802 | 39 | 97 | 1.6 | 12.9 | 0.00 | 0.00 | 0.00 | 31 | 1014.9 |
| 20260901213303 | 38 | 74 | 1.6 | 8.0 | 0.00 | 0.00 | 0.00 | 32 | 1014.9 |
| 20260901212803 | 36 | 256 | 1.6 | 9.7 | 0.00 | 0.00 | 0.00 | 32 | 1015.0 |
| 20260901212306 | 36 | 286 | 1.6 | 9.7 | 0.00 | 0.00 | 0.00 | 31 | 1015.0 |
| 20260901211803 | 37 | 102 | 1.6 | 3.2 | 0.00 | 0.00 | 0.00 | 31 | 1015.0 |
| 20260901211303 | 38 | 117 | 3.2 | 8.0 | 0.00 | 0.00 | 0.00 | 30 | 1015.0 |
| 20260901210803 | 38 | 100 | 4.8 | 8.0 | 0.00 | 0.00 | 0.00 | 29 | 1015.2 |
| 20260901205803 | 38 | 104 | 3.2 | 12.9 | 0.00 | 0.00 | 0.00 | 29 | 1015.2 |
| 20260901205306 | 38 | 145 | 1.6 | 3.2 | 0.00 | 0.00 | 0.00 | 30 | 1015.2 |
| 20260901204803 | 38 | 144 | 1.6 | 3.2 | 0.00 | 0.00 | 0.00 | 31 | 1015.7 |
| 20260901204303 | 37 | 156 | 1.6 | 9.7 | 0.00 | 0.00 | 0.00 | 30 | 1015.7 |
| 20260901203803 | 40 | 255 | 1.6 | 9.7 | 0.00 | 0.00 | 0.00 | 28 | 1015.7 |
| 20260901203303 | 39 | 111 | 1.6 | 3.2 | 0.00 | 0.00 | 0.00 | 30 | 1015.7 |
| 20260901202803 | 40 | 255 | 1.6 | 4.8 | 0.00 | 0.00 | 0.00 | 26 | 1015.9 |
| 20260901202306 | 41 | 82 | 0.0 | 0.0 | 0.00 | 0.00 | 0.00 | 28 | 1015.9 |
| 20260901201804 | 40 | 279 | 1.6 | 0.0 | 0.00 | 0.00 | 0.00 | 28 | 1015.9 |
| 20260901201303 | 40 | 222 | 3.2 | 4.8 | 0.00 | 0.00 | 0.00 | 27 | 1015.9 |
| 20260901200803 | 40 | 178 | 3.2 | 8.0 | 0.00 | 0.00 | 0.00 | 26 | 1016.0 |
| 20260901200303 | 40 | 180 | 3.2 | 12.9 | 0.00 | 0.00 | 0.00 | 26 | 1016.0 |
| 20260901195803 | 40 | 145 | 1.6 | 12.9 | 0.00 | 0.00 | 0.00 | 27 | 1016.0 |
| 20260901195305 | 40 | 168 | 1.6 | 3.2 | 0.00 | 0.00 | 0.00 | 29 | 1016.0 |
| 20260901194303 | 38 | 136 | 4.8 | 19.3 | 0.00 | 0.00 | 0.00 | 30 | 1016.9 |
| 20260901193804 | 38 | 126 | 8.0 | 19.3 | 0.00 | 0.00 | 0.00 | 28 | 1016.9 |
| 20260901193303 | 38 | 100 | 4.8 | 9.7 | 0.00 | 0.00 | 0.00 | 31 | 1016.9 |
| 20260901192803 | 38 | 122 | 3.2 | 9.7 | 0.00 | 0.00 | 0.00 | 30 | 1016.3 |
| 20260901191802 | 38 | 238 | 3.2 | 11.3 | 0.00 | 0.00 | 0.00 | 31 | 1016.3 |
| 20260901191303 | 38 | 316 | 6.4 | 9.7 | 0.00 | 0.00 | 0.00 | 32 | 1016.3 |
| 20260901190803 | 37 | 103 | 8.0 | 19.3 | 0.00 | 0.00 | 0.00 | 32 | 1016.5 |
| 20260901190303 | 37 | 100 | 8.0 | 14.5 | 0.00 | 0.00 | 0.00 | 32 | 1016.5 |
| 20260901185803 | 37 | 121 | 8.0 | 19.3 | 0.00 | 0.00 | 0.00 | 34 | 1016.5 |
| 20260901185305 | 37 | 100 | 3.2 | 19.3 | 0.00 | 0.00 | 0.00 | 33 | 1016.5 |
| 20260901184803 | 37 | 98 | 4.8 | 9.7 | 0.00 | 0.00 | 0.00 | 36 | 1016.7 |
| 20260901184303 | 36 | 145 | 8.0 | 12.9 | 0.00 | 0.00 | 0.00 | 36 | 1016.7 |
| 20260901183304 | 36 | 25 | 6.4 | 9.7 | 0.00 | 0.00 | 0.00 | 36 | 1016.7 |
| 20260901182803 | 36 | 303 | 8.0 | 12.9 | 0.00 | 0.00 | 0.00 | 39 | 1016.9 |
| 20260901182305 | 36 | 307 | 8.0 | 11.3 | 0.00 | 0.00 | 0.00 | 40 | 1016.9 |
| 20260901180303 | 34 | 200 | 8.0 | 19.3 | 0.00 | 0.00 | 0.00 | 46 | 1017.3 |
| 20260901175803 | 33 | 97 | 8.0 | 12.9 | 0.00 | 0.00 | 0.00 | 46 | 1017.3 |
| 20260901175305 | 33 | 105 | 4.8 | 12.9 | 0.00 | 0.00 | 0.00 | 46 | 1017.3 |
| 20260901174803 | 33 | 13 | 3.2 | 8.0 | 0.00 | 0.00 | 0.00 | 47 | 1017.3 |
| 20260901174303 | 33 | 302 | 4.8 | 11.3 | 0.00 | 0.00 | 0.00 | 47 | 1017.3 |
| 20260901173803 | 33 | 302 | 4.8 | 12.9 | 0.00 | 0.00 | 0.00 | 48 | 1017.3 |
| 20260901172803 | 32 | 280 | 3.2 | 9.7 | 0.00 | 0.00 | 0.00 | 49 | 1017.6 |
| 20260901171303 | 32 | 222 | 4.8 | 12.9 | 0.00 | 0.00 | 0.00 | 50 | 1017.6 |
| 20260901170303 | 32 | 264 | 4.8 | 14.5 | 0.00 | 0.00 | 0.00 | 51 | 1017.8 |
| 20260901165803 | 32 | 122 | 4.8 | 14.5 | 0.00 | 0.00 | 0.00 | 51 | 1017.8 |
| 20260901165306 | 32 | 131 | 3.2 | 19.3 | 0.00 | 0.00 | 0.00 | 51 | 1017.8 |
| 20260901164803 | 32 | 281 | 4.8 | 19.3 | 0.00 | 0.00 | 0.00 | 52 | 1017.9 |
| 20260901164303 | 31 | 309 | 8.0 | 9.7 | 0.00 | 0.00 | 0.00 | 51 | 1017.9 |
| 20260901163803 | 31 | 98 | 11.3 | 9.7 | 0.00 | 0.00 | 0.00 | 52 | 1017.9 |
| 20260901163303 | 31 | 136 | 9.7 | 24.1 | 0.00 | 0.00 | 0.00 | 51 | 1017.9 |
| 20260901162803 | 31 | 148 | 9.7 | 24.1 | 0.00 | 0.00 | 0.00 | 51 | 1017.9 |
| 20260901162306 | 31 | 68 | 9.7 | 12.9 | 0.00 | 0.00 | 0.00 | 53 | 1017.9 |
| 20260901161804 | 31 | 51 | 11.3 | 19.3 | 0.00 | 0.00 | 0.00 | 54 | 1017.9 |
| 20260901161303 | 31 | 104 | 9.7 | 29.0 | 0.00 | 0.00 | 0.00 | 54 | 1017.9 |
| 20260901160803 | 31 | 100 | 9.7 | 29.0 | 0.00 | 0.00 | 0.00 | 55 | 1017.9 |
| 20260901160303 | 31 | 90 | 9.7 | 16.1 | 0.00 | 0.00 | 0.00 | 54 | 1017.9 |
| 20260901155803 | 31 | 142 | 9.7 | 32.2 | 0.00 | 0.00 | 0.00 | 55 | 1017.9 |
| 20260901155306 | 31 | 68 | 8.0 | 32.2 | 0.00 | 0.00 | 0.00 | 54 | 1017.9 |
| 20260901154803 | 31 | 280 | 4.8 | 14.5 | 0.00 | 0.00 | 0.00 | 56 | 1017.9 |
| 20260901154303 | 31 | 258 | 8.0 | 19.3 | 0.00 | 0.00 | 0.00 | 56 | 1017.9 |
| 20260901153803 | 30 | 142 | 8.0 | 19.3 | 0.00 | 0.00 | 0.00 | 56 | 1017.9 |
| 20260901153303 | 30 | 100 | 8.0 | 11.3 | 0.00 | 0.00 | 0.00 | 56 | 1017.9 |
| 20260901152803 | 30 | 56 | 4.8 | 11.3 | 0.00 | 0.00 | 0.00 | 57 | 1017.8 |
| 20260901151803 | 30 | 214 | 4.8 | 12.9 | 0.00 | 0.00 | 0.00 | 58 | 1017.8 |
| 20260901151303 | 30 | 110 | 4.8 | 9.7 | 0.00 | 0.00 | 0.00 | 58 | 1017.8 |
| 20260901150303 | 30 | 342 | 4.8 | 12.9 | 0.00 | 0.00 | 0.00 | 59 | 1017.7 |
| 20260901145803 | 29 | 101 | 6.4 | 11.3 | 0.00 | 0.00 | 0.00 | 60 | 1017.7 |
| 20260901145306 | 29 | 118 | 8.0 | 11.3 | 0.00 | 0.00 | 0.00 | 60 | 1017.7 |
| 20260901144803 | 28 | 347 | 4.8 | 11.3 | 0.00 | 0.00 | 0.00 | 60 | 1018.0 |
| 20260901144303 | 28 | 104 | 3.2 | 12.9 | 0.00 | 0.00 | 0.00 | 61 | 1018.0 |
| 20260901143803 | 28 | 183 | 4.8 | 4.8 | 0.00 | 0.00 | 0.00 | 62 | 1018.0 |
| 20260901143303 | 28 | 161 | 4.8 | 11.3 | 0.00 | 0.00 | 0.00 | 63 | 1018.0 |
| 20260901142803 | 28 | 114 | 4.8 | 11.3 | 0.00 | 0.00 | 0.00 | 65 | 1018.0 |
| 20260901142305 | 28 | 82 | 4.8 | 12.9 | 0.00 | 0.00 | 0.00 | 64 | 1018.0 |
| 20260901141803 | 27 | 100 | 4.8 | 12.9 | 0.00 | 0.00 | 0.00 | 66 | 1018.0 |
| 20260901141303 | 27 | 118 | 4.8 | 9.7 | 0.00 | 0.00 | 0.00 | 67 | 1018.0 |
| 20260901140303 | 27 | 100 | 3.2 | 9.7 | 0.00 | 0.00 | 0.00 | 69 | 1017.9 |
| 20260901135803 | 26 | 123 | 3.2 | 9.7 | 0.00 | 0.00 | 0.00 | 70 | 1017.9 |
| 20260901135305 | 26 | 119 | 3.2 | 8.0 | 0.00 | 0.00 | 0.00 | 70 | 1017.9 |
| 20260901133803 | 26 | 147 | 0.0 | 0.0 | 0.00 | 0.00 | 0.00 | 73 | 1018.0 |
| 20260901133303 | 26 | 145 | 0.0 | 3.2 | 0.00 | 0.00 | 0.00 | 74 | 1018.0 |
| 20260901132804 | 25 | 104 | 1.6 | 3.2 | 0.00 | 0.00 | 0.00 | 75 | 1017.8 |
| 20260901132306 | 25 | 100 | 0.0 | 0.0 | 0.00 | 0.00 | 0.00 | 75 | 1017.8 |
| 20260901131803 | 25 | 104 | 0.0 | 3.2 | 0.00 | 0.00 | 0.00 | 76 | 1017.8 |
| 20260901131303 | 25 | 123 | 0.0 | 3.2 | 0.00 | 0.00 | 0.00 | 77 | 1017.8 |
| 20260901130805 | 25 | 98 | 1.6 | 0.0 | 0.00 | 0.00 | 0.00 | 77 | 1017.9 |
| 20260901130303 | 24 | 156 | 3.2 | 4.8 | 0.00 | 0.00 | 0.00 | 78 | 1017.9 |
| 20260901125803 | 24 | 117 | 3.2 | 4.8 | 0.00 | 0.00 | 0.00 | 78 | 1017.9 |
| 20260901125308 | 24 | 145 | 1.6 | 4.8 | 0.00 | 0.00 | 0.00 | 79 | 1017.9 |
| 20260901124804 | 24 | 100 | 1.6 | 4.8 | 0.00 | 0.00 | 0.00 | 80 | 1017.7 |
| 20260901124303 | 23 | 121 | 1.6 | 4.8 | 0.00 | 0.00 | 0.00 | 80 | 1017.6 |
| 20260901123803 | 23 | 105 | 1.6 | 4.8 | 0.00 | 0.00 | 0.00 | 80 | 1017.6 |
| 20260901123303 | 23 | 160 | 0.0 | 0.0 | 0.00 | 0.00 | 0.00 | 81 | 1017.6 |
| 20260901122803 | 23 | 118 | 0.0 | 0.0 | 0.00 | 0.00 | 0.00 | 81 | 1017.5 |
| 20260901122306 | 23 | 212 | 0.0 | 0.0 | 0.00 | 0.00 | 0.00 | 81 | 1017.5 |
| 20260901121803 | 23 | 103 | 0.0 | 3.2 | 0.00 | 0.00 | 0.00 | 81 | 1017.5 |
| 20260901121303 | 23 | 122 | 0.0 | 0.0 | 0.00 | 0.00 | 0.00 | 81 | 1017.5 |
| 20260901120803 | 23 | 117 | 0.0 | 0.0 | 0.00 | 0.00 | 0.00 | 82 | 1017.4 |
| 20260901120304 | 23 | 235 | 0.0 | 0.0 | 0.00 | 0.00 | 0.00 | 82 | 1017.4 |
| 20260901115804 | 23 | 132 | 0.0 | 0.0 | 0.00 | 0.00 | 0.00 | 82 | 1017.4 |
| 20260901115306 | 23 | 144 | 0.0 | 0.0 | 0.00 | 0.00 | 0.00 | 81 | 1017.4 |
| 20260901114803 | 23 | 93 | 0.0 | 0.0 | 0.00 | 0.00 | 0.00 | 81 | 1017.2 |
| 20260901113803 | 23 | 159 | 0.0 | 0.0 | 0.00 | 0.00 | 0.00 | 80 | 1017.1 |
| 20260901113304 | 23 | 81 | 0.0 | 0.0 | 0.00 | 0.00 | 0.00 | 80 | 1017.1 |
| 20260901112306 | 23 | 171 | 0.0 | 0.0 | 0.00 | 0.00 | 0.00 | 80 | 1017.2 |
| 20260901111803 | 23 | 159 | 0.0 | 0.0 | 0.00 | 0.00 | 0.00 | 79 | 1017.2 |
| 20260901110803 | 23 | 242 | 0.0 | 0.0 | 0.00 | 0.00 | 0.00 | 80 | 1017.0 |
| 20260901110303 | 23 | 302 | 0.0 | 0.0 | 0.00 | 0.00 | 0.00 | 79 | 1016.9 |
| 20260901105803 | 23 | 107 | 0.0 | 0.0 | 0.00 | 0.00 | 0.00 | 79 | 1016.9 |
| 20260901104803 | 22 | 109 | 0.0 | 0.0 | 0.00 | 0.00 | 0.00 | 79 | 1016.9 |
| 20260901104303 | 22 | 248 | 0.0 | 0.0 | 0.00 | 0.00 | 0.00 | 79 | 1016.9 |
| 20260901103803 | 22 | 117 | 0.0 | 0.0 | 0.00 | 0.00 | 0.00 | 78 | 1016.9 |
| 20260901103303 | 22 | 108 | 0.0 | 0.0 | 0.00 | 0.00 | 0.00 | 78 | 1017.1 |
| 20260901102803 | 22 | 55 | 0.0 | 0.0 | 0.00 | 0.00 | 0.00 | 78 | 1017.0 |
| 20260901102306 | 22 | 187 | 0.0 | 0.0 | 0.00 | 0.00 | 0.00 | 78 | 1017.0 |
| 20260901101804 | 23 | 113 | 0.0 | 0.0 | 0.00 | 0.00 | 0.00 | 78 | 1017.0 |
| 20260901101303 | 23 | 106 | 0.0 | 0.0 | 0.00 | 0.00 | 0.00 | 78 | 1017.0 |
| 20260901100804 | 23 | 159 | 0.0 | 0.0 | 0.00 | 0.00 | 0.00 | 77 | 1016.8 |
| 20260901100303 | 23 | 147 | 0.0 | 0.0 | 0.00 | 0.00 | 0.00 | 78 | 1016.8 |
| 20260901095804 | 23 | 159 | 0.0 | 0.0 | 0.00 | 0.00 | 0.00 | 77 | 1016.8 |
| 20260901095306 | 23 | 145 | 0.0 | 0.0 | 0.00 | 0.00 | 0.00 | 78 | 1016.8 |
| 20260901094303 | 23 | 61 | 0.0 | 0.0 | 0.00 | 0.00 | 0.00 | 77 | 1016.9 |
| 20260901093803 | 23 | 50 | 0.0 | 0.0 | 0.00 | 0.00 | 0.00 | 77 | 1016.9 |
| 20260901092803 | 23 | 115 | 0.0 | 0.0 | 0.00 | 0.00 | 0.00 | 76 | 1016.7 |
| 20260901092305 | 23 | 100 | 0.0 | 0.0 | 0.00 | 0.00 | 0.00 | 74 | 1016.6 |
| 20260901091803 | 23 | 136 | 0.0 | 0.0 | 0.00 | 0.00 | 0.00 | 76 | 1016.6 |
| 20260901091304 | 23 | 147 | 0.0 | 0.0 | 0.00 | 0.00 | 0.00 | 74 | 1016.6 |
| 20260901090803 | 23 | 83 | 0.0 | 0.0 | 0.00 | 0.00 | 0.00 | 73 | 1016.3 |
| 20260901090303 | 23 | 122 | 0.0 | 0.0 | 0.00 | 0.00 | 0.00 | 74 | 1016.2 |
| 20260901085804 | 23 | 196 | 0.0 | 0.0 | 0.00 | 0.00 | 0.00 | 73 | 1016.2 |
| 20260901085305 | 23 | 16 | 0.0 | 0.0 | 0.00 | 0.00 | 0.00 | 72 | 1016.2 |
| 20260901084804 | 23 | 100 | 0.0 | 0.0 | 0.00 | 0.00 | 0.00 | 72 | 1016.2 |
| 20260901084304 | 23 | 100 | 0.0 | 0.0 | 0.00 | 0.00 | 0.00 | 72 | 1016.2 |
| 20260901083804 | 23 | 163 | 0.0 | 0.0 | 0.00 | 0.00 | 0.00 | 71 | 1016.2 |
| 20260901082803 | 23 | 24 | 0.0 | 0.0 | 0.00 | 0.00 | 0.00 | 71 | 1016.3 |
| 20260901082306 | 23 | 205 | 0.0 | 0.0 | 0.00 | 0.00 | 0.00 | 71 | 1016.3 |
| 20260901081305 | 23 | 106 | 0.0 | 0.0 | 0.00 | 0.00 | 0.00 | 71 | 1016.3 |
| 20260901080803 | 23 | 177 | 0.0 | 0.0 | 0.00 | 0.00 | 0.00 | 71 | 1016.2 |
| 20260901080304 | 24 | 205 | 0.0 | 0.0 | 0.00 | 0.00 | 0.00 | 70 | 1016.2 |
| 20260901075803 | 24 | 100 | 0.0 | 0.0 | 0.00 | 0.00 | 0.00 | 70 | 1016.2 |
| 20260901074803 | 24 | 83 | 0.0 | 0.0 | 0.00 | 0.00 | 0.00 | 70 | 1016.4 |
| 20260901074304 | 24 | 206 | 0.0 | 0.0 | 0.00 | 0.00 | 0.00 | 70 | 1016.4 |
| 20260901073803 | 24 | 100 | 0.0 | 0.0 | 0.00 | 0.00 | 0.00 | 69 | 1016.4 |
| 20260901073303 | 24 | 100 | 0.0 | 0.0 | 0.00 | 0.00 | 0.00 | 69 | 1016.4 |
| 20260901072803 | 24 | 136 | 0.0 | 0.0 | 0.00 | 0.00 | 0.00 | 69 | 1016.2 |
| 20260901072308 | 24 | 125 | 0.0 | 0.0 | 0.00 | 0.00 | 0.00 | 69 | 1016.2 |
| 20260901071804 | 25 | 25 | 0.0 | 3.2 | 0.00 | 0.00 | 0.00 | 69 | 1016.2 |
| 20260901071303 | 25 | 125 | 0.0 | 3.2 | 0.00 | 0.00 | 0.00 | 68 | 1016.2 |
| 20260901070803 | 25 | 230 | 0.0 | 0.0 | 0.00 | 0.00 | 0.00 | 69 | 1016.2 |
| 20260901070304 | 25 | 162 | 0.0 | 0.0 | 0.00 | 0.00 | 0.00 | 68 | 1016.2 |
| 20260901065804 | 25 | 135 | 0.0 | 0.0 | 0.00 | 0.00 | 0.00 | 68 | 1016.2 |
| 20260901065305 | 25 | 152 | 0.0 | 0.0 | 0.00 | 0.00 | 0.00 | 68 | 1016.2 |
| 20260901064804 | 25 | 177 | 0.0 | 0.0 | 0.00 | 0.00 | 0.00 | 68 | 1016.3 |